Regional Weather Roundup
Issued by NWS

Home | Current Version | Previous Version | Text Only | Print | Product List | Glossary Off
Versions: 1 2 3 4 5 6 7 8 9 10 11 12 13 14 15 16 17 18 19 20 21 22 23 24 25 26 27 28 29 30 31 32 33 34 35 36 37 38 39 40 41 42 43 44 45 46 47 48 49 50

000
ASUS43 KDTX 012001
RWRMI
MICHIGAN HOURLY REGIONAL WEATHER ROUNDUP
NATIONAL WEATHER SERVICE DETROIT/PONTIAC MI
400 PM EDT TUE SEP 01 2015

NOTE: "FAIR" INDICATES FEW OR NO CLOUDS BELOW 12,000 FEET WITH NO
SIGNIFICANT WEATHER AND/OR OBSTRUCTION TO VISIBILITY.

MIZ047>049-052>055-059>063-066>070-074>076-081>083-012100-
SOUTHEAST LOWER MICHIGAN

CITY           SKY/WX    TMP DP  RH WIND       PRES   REMARKS
ADRIAN         MOSUNNY   90  66  45 SW14      30.06F HX  92
ALMA           MOSUNNY   86  69  57 SW5       30.03F HX  90
ANN ARBOR      MOSUNNY   88  67  49 SW9       30.05F HX  91
BAD AXE        MOSUNNY   84  68  58 W8        30.04F
DETROIT CITY   MOSUNNY   88  68  51 SW10      30.04F HX  91
DETROIT        MOSUNNY   89  67  47 S13       30.05F HX  92
FLINT          MOSUNNY   90  66  45 SW8       30.04F HX  92
GROSSE ILE     SUNNY     82  73  74 S8        30.04F
HILLSDALE      SUNNY     87  65  47 SW7       30.08F
HOWELL         MOSUNNY   88  59  37 SW9       30.05F

CITY           SKY/WX    TMP DP  RH WIND       PRES   REMARKS
JACKSON        SUNNY     86  68  54 W8        30.06F
LAMBERTVILLE   MOSUNNY   86  68  54 SW3       30.07S HX  90
LANSING        MOSUNNY   87  66  49 SW7       30.04F
LAPEER         FAIR      87  65  47 SW8       30.04F
MASON          MOSUNNY   86  65  49 SW7       30.06S
MONROE         MOSUNNY   88  67  49 SW7       30.04F HX  90
MT. CLEMENS    MOSUNNY   83  72  69 E7        30.03F HAZE
PONTIAC        MOSUNNY   89  65  44 W10       30.04F HX  91
PORT HOPE        N/A     77  70  79 VRB5      30.02F
PORT HURON     MOSUNNY   84  68  58 SW3       30.04F
TRI CITIES     SUNNY     86  69  56 SW8       30.03F HX  90
MIDLAND        FAIR      88  66  48 SW9       30.02S HX  90
TROY           PTSUNNY   90  63  40 S6        30.06F HX  91
SAGINAW HB     MOSUNNY   86  70  58 SW6       30.02F HX  90
$$
MIZ043>046-050>051-056>058-064>065-071>073-077>080-012100-
SOUTHWEST LOWER MICHIGAN

CITY           SKY/WX    TMP DP  RH WIND       PRES   REMARKS
BATTLE CREEK   MOSUNNY   88  69  53 SW9       30.06F HX  92
BENTON HARBOR  MOSUNNY   84  68  58 S9        30.03F
BIG RAPIDS     MOSUNNY   85  69  57 SW9       30.01F
COLDWATER      MOSUNNY   85  69  59 SW6       30.06F
FREMONT        PTSUNNY   84  73  69 S12       30.01F
HOLLAND        SUNNY     87  73  62 SW10      30.03F HX  94
GRAND RAPIDS   MOSUNNY   87  70  56 SW8       30.02F HX  92
IONIA          FAIR      89  66  46 SW6       30.02F HX  91
KALAMAZOO      MOSUNNY   87  69  54 S9        30.04F HX  91
LUDINGTON      SUNNY     84  73  70 SW10      29.99F HX  90
MARSHALL       MOSUNNY   87  68  54 S7        30.05F HX  90
MOUNT PLEASANT SUNNY     90  66  45 SW8       30.01F HX  92
MUSKEGON       MOSUNNY   83  71  67 SW10      30.02F
SOUTH HAVEN    SUNNY     84  72  67 SW13      30.03S HX  90
$$
MIZ016>042-012100-
NORTHERN LOWER MICHIGAN

CITY           SKY/WX    TMP DP  RH WIND       PRES   REMARKS
ALPENA         MOSUNNY   87  66  49 SW10      30.00F
BEAVER ISLAND  MOSUNNY   82  70  67 SW9       29.97S
BELLAIRE       SUNNY     88  67  49 S8        29.97F HX  91
CADILLAC       MOSUNNY   86  69  57 S10G16    30.02F HX  90
CHARLEVOIX     MOSUNNY   87  70  56 SW7       30.00S HX  91
FRANKFORT      SUNNY     78  71  78 SW9G20    29.98S
GAYLORD        MOSUNNY   85  66  53 SW12      30.02F
GRAYLING       SUNNY     86  67  52 SW8       30.02F
HARBOR SPRINGS SUNNY     85  70  62 SW3       29.97F
HOUGHTON LAKE  SUNNY     86  67  52 SW7       30.03F
MANISTEE       SUNNY     88  70  55 S9G17     29.98F HX  92
OSCODA         SUNNY     85  69  59 S9        30.00F
PELLSTON       MOSUNNY   87  69  54 VRB6      29.97F HX  91
ROGERS CITY    MOSUNNY   84  70  62 E9        29.99F
TRAVERSE CITY  MOSUNNY   89  68  49 VRB6      29.96F HX  93
$$
MIZ007>008-015-012100-
EASTERN UPPER MICHIGAN

CITY           SKY/WX    TMP DP  RH WIND       PRES   REMARKS
KINROSS        MOSUNNY   82  72  69 SW8G16    29.97S
MACKINAC ISLAN SUNNY     81  65  58 W7        29.98S
NEWBERRY       MOSUNNY   82  71  69 S12G18    29.95S
S. S. MARIE    PTSUNNY   83  70  64 SW10G18   29.95S
$$
MIZ004>006-011>014-085-012100-
CENTRAL UPPER MICHIGAN

CITY           SKY/WX    TMP DP  RH WIND       PRES   REMARKS
MANISTIQUE     CLOUDY    71  67  87 S8        29.96S FOG
ESCANABA       MOSUNNY   79  68  69 SE10      29.92F
MENOMINEE      PTSUNNY   86  72  62 S13       29.92S HX  92
SAWYER-GWINN   PTSUNNY   86  68  54 SW12G17   29.92F
$$
MIZ001>003-009>011-084-012100-
WESTERN UPPER MICHIGAN

CITY           SKY/WX    TMP DP  RH WIND       PRES   REMARKS
IRON MOUNTAIN  PTSUNNY   86  67  52 S10       29.92F
HOUGHTON       CLOUDY    76  68  76 W17       29.90S
IRONWOOD       PTSUNNY   82  70  65 SW12      29.89R
$$

ABBREVIATIONS USED IN REMARKS
   TC - TEMPERATURE IN CELSIUS
  WCI - WIND CHILL INDEX
   HX - HEAT INDEX
  VSB - VISIBILITY




USA.gov is the U.S. government's official web portal to all federal, state and local government web resources and services.